Location: Lake Crest
(37.6062°N, 88.9176°W)
Time: 02:28:15
(UTC+00:00)

CZ-4C R/B - Pass Details

Date: 15 December 2019
Orbit: 646 x 1355 km, 63.4° (Epoch: 20 January)

Event Time Altitude Azimuth Distance (km) Brightness Sun altitude
Rises 00:41:40 0° 220° (SW) 3,009 5.9 -23.7°
Reaches altitude 10° 00:43:52 10° 224° (SW) 2,146 5.0 -24.1°
Maximum altitude 00:48:40 63° 306° (NW) 850 2.3 -25.1°
Enters shadow 00:50:15 43° 6° (N) 1,100 2.6 -25.4°
